User: anonymous   Login
Location: Bishop�s Knoyle
(51.0728°N, 2.1714°W)
Time: 01:47:37
(UTC+00:00)
Language:

UNISAT 6 - Orbit

View from above orbital plane
View from above orbital plane
View from above satellite
View from above satellite

Ground track
Ground track

The orbit data is extracted from the following two-line orbital elements,

1 40012U 14033C   21339.52441532  .00000390  00000-0  64290-4 0  9999
2 40012  97.6628 172.8736 0059240  67.3880 293.3581 14.74456191401405
Epoch (UTC): 05 December 2021 12:35:09
Eccentricity: 0.0059240
inclination: 97.6628°
perigee height: 605 km
apogee height: 688 km
right ascension of ascending node: 172.8736°
argument of perigee: 67.3880°
revolutions per day: 14.74456191
mean anomaly at epoch: 293.3581°
orbit number at epoch: 40140

The dashed part of the orbit path shows where the satellite is in the earth's shadow,  

DLR